Flag for Tajikistan Weather past 2 weeks in Dushanbe, Tajikistan

Now
32 °F

Ice fog.


Feels Like: 29 °F
Forecast: 32 / 47 °F
Wind: 3 mph from South

Location: Dushanbe Airport

Current Time: Jan 29, 2015 at 9:39:02 AM

Latest Report: Jan 29, 2015 at 9:00 AM


Visibility: 0 mi

Pressure: 30.27 "Hg

Humidity: 93%

Dew point: 30 °F

Location of DushanbeLocation

Historic Weather in Dushanbe — Graph

°F

Dushanbe temperature yesterday

Maximum temperature yesterday: 39 °F (at 12:00 PM)
Minimum temperature yesterday: 25 °F (at 1:30 AM)
Average temperature yesterday: 33 °F

Past Weeks' High & Low Weather Summary

 TemperatureHumidityPressure
High59 °F (Jan 17, 2:30 PM)100% (Jan 14, 9:30 AM)30.51 "Hg (Jan 14, 9:30 AM)
Low23 °F (Jan 27, 6:00 AM)18% (Jan 17, 2:00 PM)29.98 "Hg (Jan 19, 7:30 PM)
Average38 °F74%30.24 "Hg
* Reported Jan 14 8:00 AM — Jan 29 8:30 AM, Dushanbe, Weather by CustomWeather, © 2014

Note: Actual official high and low records may vary slightly from our data, if they occured in-between our weather recording intervals... More about our weather records

Advertising

Dushanbe weather history for previous 24 hours

 ConditionsComfort  
Time TempWeatherWind HumidityBarometerVisibility
8:30 AM
Jan 29
32 °FIce fog.1 mph93%30.24 "Hg1 mi
8:00 AM32 °FLight snow. Ice fog.No wind93%30.24 "Hg2 mi
7:30 AM30 °FIce fog.No wind100%30.24 "Hg3 mi
7:00 AM30 °FLight snow. Mostly cloudy.1 mph93%30.21 "Hg4 mi
6:30 AM30 °FLight snow. Mostly cloudy.3 mph93%30.21 "Hg3 mi
6:00 AM30 °FLight snow. Overcast.3 mph93%30.21 "Hg2 mi
5:30 AM30 °FLight snow. Mostly cloudy.6 mph93%30.21 "HgN/A
5:00 AM30 °FLight snow. Mostly cloudy.8 mph93%30.21 "Hg4 mi
4:30 AM30 °FLight snow. Mostly cloudy.8 mph93%30.21 "Hg5 mi
4:00 AM30 °FLight snow. Mostly cloudy.8 mph100%30.21 "Hg2 mi
3:30 AM30 °FLight snow. Mostly cloudy.3 mph100%30.24 "Hg2 mi
3:00 AM30 °FLight snow. Mostly cloudy.6 mph100%30.24 "Hg2 mi
2:30 AM30 °FLight snow. Overcast.3 mph100%30.24 "Hg2 mi
2:00 AM30 °FLight snow. Mostly cloudy.3 mph100%30.24 "Hg2 mi
1:30 AM30 °FLight snow. Mostly cloudy.8 mph100%30.24 "Hg2 mi
1:00 AM30 °FLight snow. Mostly cloudy.3 mph100%30.24 "Hg2 mi
12:30 AM30 °FLight snow. Mostly cloudy.3 mph100%30.24 "Hg3 mi
12:00 AM30 °FLight snow. Mostly cloudy.6 mph100%30.24 "Hg2 mi
11:30 PM
Jan 28
30 °FLight snow. Mostly cloudy.3 mph100%30.27 "Hg2 mi
11:00 PM30 °FLight snow. Mostly cloudy.6 mph100%30.24 "Hg2 mi
10:30 PM32 °FSnow. Low clouds.3 mph93%30.24 "Hg2 mi
10:00 PM32 °FLight snow. Mostly cloudy.1 mph87%30.24 "Hg5 mi
9:30 PM34 °FOvercast.6 mph81%30.24 "Hg6 mi
9:00 PM34 °FOvercast.6 mph70%30.24 "HgN/A
8:30 PM34 °FMostly cloudy.6 mph75%30.24 "HgN/A
8:00 PM34 °FMostly cloudy.6 mph75%30.24 "HgN/A
7:30 PM34 °FLight rain. Overcast.6 mph75%30.21 "HgN/A
7:00 PM36 °FMostly cloudy.1 mph70%30.21 "HgN/A
6:30 PM36 °FLight rain. Mostly cloudy.3 mph75%30.21 "HgN/A
6:00 PM37 °FLight snow. Mostly cloudy.3 mph65%30.18 "HgN/A
5:30 PM37 °FMostly cloudy.6 mph56%30.18 "Hg3 mi
5:00 PM37 °FOvercast.3 mph52%30.15 "Hg3 mi
4:30 PM37 °FMore clouds than sun.3 mph56%30.15 "Hg2 mi
4:00 PM39 °FOvercast.1 mph45%30.15 "Hg2 mi
3:30 PM39 °FMore clouds than sun.3 mph39%30.15 "Hg4 mi
3:00 PM39 °FOvercast.3 mph36%30.15 "Hg4 mi
2:30 PM39 °FMostly cloudy.1 mph36%30.12 "Hg5 mi
2:00 PM39 °FMostly cloudy.1 mph36%30.15 "Hg4 mi
1:30 PM39 °FOvercast.1 mph36%30.15 "Hg3 mi
1:00 PM37 °FBroken clouds.3 mph52%30.15 "Hg2 mi
12:30 PM37 °FPartly sunny.6 mph48%30.15 "Hg2 mi
12:00 PM39 °FPartly sunny.1 mph26%30.15 "HgN/A
11:30 AM37 °FPartly sunny.6 mph33%30.15 "HgN/A
11:00 AM37 °FPartly sunny.6 mph30%30.15 "HgN/A
10:30 AM36 °FPartly sunny.3 mph35%30.15 "HgN/A
10:00 AM36 °FPartly sunny.3 mph35%30.15 "HgN/A
9:30 AM34 °FClear.6 mph35%30.15 "HgN/A
9:00 AM32 °FClear.6 mph44%30.15 "Hg6 mi
Weather by CustomWeather, © 2014

See weather overviewHow to use our weather pages